User: anonymous
Location: McDonald Observatory
(30.6717°N, 104.0221°W)
Time: 21:36:28
(UTC-05:00)
Language:

Cosmos 1484 Rocket - Orbit

View from above orbital plane
View from above orbital plane
View from above satellite
View from above satellite

Ground track
Ground track

The orbit data is extracted from the following two-line orbital elements,

1 14208U 83075B   14208.68790626  .00000601  00000-0  43401-4 0   766
2 14208 097.4218 244.1019 0043532 162.3135 197.9620 15.07023108688303
Epoch (UTC): 27 July 2014 16:30:35
Eccentricity: 0.0043532
inclination: 97.4218°
perigee height: 515 km
apogee height: 575 km
right ascension of ascending node: 244.1019°
argument of perigee: 162.3135°
revolutions per day: 15.07023108
mean anomaly at epoch: 197.9620°
orbit number at epoch: 68830

The dashed part of the orbit path shows where the satellite is in the earth's shadow,  

DLR